TimeEDT,TemperatureF,Dew PointF,Humidity,Sea Level PressureIn,VisibilityMPH,Wind Direction,Wind SpeedMPH,Gust SpeedMPH,PrecipitationIn,Events,Conditions,WindDirDegrees,DateUTC
12:15 AM,71.6,71.6,100,30.02,10.0,Calm,Calm,-,N/A,,Overcast,0,2013-08-01 04:15:00
12:35 AM,73.4,73.4,100,30.02,8.0,Calm,Calm,-,N/A,,Overcast,0,2013-08-01 04:35:00
12:55 AM,71.6,71.6,100,30.01,10.0,Calm,Calm,-,N/A,Rain,Light Rain,0,2013-08-01 04:55:00
1:15 AM,71.6,71.6,100,30.01,10.0,SW,3.5,-,N/A,,Mostly Cloudy,220,2013-08-01 05:15:00
1:35 AM,71.6,71.6,100,30.00,10.0,Calm,Calm,-,N/A,,Mostly Cloudy,0,2013-08-01 05:35:00
1:55 AM,71.6,71.6,100,29.99,7.0,Calm,Calm,-,N/A,Rain,Light Rain,0,2013-08-01 05:55:00
2:15 AM,69.8,69.8,100,29.99,4.0,Calm,Calm,-,N/A,,Scattered Clouds,0,2013-08-01 06:15:00
2:35 AM,69.8,69.8,100,29.99,4.0,Calm,Calm,-,N/A,,Clear,0,2013-08-01 06:35:00
2:55 AM,71.6,71.6,100,29.98,2.0,Calm,Calm,-,N/A,,Mostly Cloudy,0,2013-08-01 06:55:00
3:15 AM,71.6,71.6,100,29.98,3.0,Calm,Calm,-,N/A,,Mostly Cloudy,0,2013-08-01 07:15:00
3:35 AM,71.6,71.6,100,29.98,6.0,Calm,Calm,-,N/A,Rain,Light Rain,0,2013-08-01 07:35:00
3:55 AM,71.6,71.6,100,29.98,8.0,Calm,Calm,-,N/A,Rain,Light Rain,0,2013-08-01 07:55:00
4:15 AM,71.6,71.6,100,29.97,8.0,Calm,Calm,-,N/A,,Overcast,0,2013-08-01 08:15:00
4:35 AM,71.6,71.6,100,29.97,7.0,Calm,Calm,-,N/A,,Overcast,0,2013-08-01 08:35:00
4:55 AM,71.6,71.6,100,29.96,5.0,Calm,Calm,-,N/A,,Overcast,0,2013-08-01 08:55:00
5:15 AM,71.6,71.6,100,29.96,5.0,Calm,Calm,-,N/A,Rain,Light Rain,0,2013-08-01 09:15:00
5:35 AM,71.6,71.6,100,29.95,5.0,Calm,Calm,-,N/A,Rain,Light Rain,0,2013-08-01 09:35:00
5:55 AM,71.6,71.6,100,29.96,7.0,Calm,Calm,-,N/A,Rain,Light Rain,0,2013-08-01 09:55:00
6:15 AM,71.6,71.6,100,29.96,5.0,Calm,Calm,-,N/A,Rain,Light Rain,0,2013-08-01 10:15:00
6:35 AM,71.6,71.6,100,29.97,5.0,Calm,Calm,-,N/A,Rain,Light Rain,0,2013-08-01 10:35:00
6:55 AM,71.6,71.6,100,29.97,5.0,Calm,Calm,-,N/A,Rain,Light Rain,0,2013-08-01 10:55:00
7:15 AM,71.6,71.6,100,29.97,3.0,Calm,Calm,-,N/A,Rain,Light Rain,0,2013-08-01 11:15:00
7:35 AM,73.4,73.4,100,29.97,5.0,Calm,Calm,-,N/A,Rain,Light Rain,0,2013-08-01 11:35:00
7:55 AM,73.4,73.4,100,29.97,5.0,Calm,Calm,-,N/A,Rain,Light Rain,0,2013-08-01 11:55:00
8:15 AM,73.4,73.4,100,29.98,5.0,Calm,Calm,-,N/A,Rain,Light Rain,0,2013-08-01 12:15:00
8:35 AM,73.4,73.4,100,29.98,5.0,Calm,Calm,-,N/A,Rain,Light Rain,0,2013-08-01 12:35:00
8:55 AM,73.4,73.4,100,29.98,5.0,Calm,Calm,-,N/A,Rain,Light Rain,0,2013-08-01 12:55:00
9:15 AM,73.4,73.4,100,29.99,5.0,SW,3.5,-,N/A,Rain,Light Rain,230,2013-08-01 13:15:00
9:35 AM,75.2,75.2,100,29.98,7.0,Calm,Calm,-,N/A,Rain,Light Rain,0,2013-08-01 13:35:00
9:55 AM,75.2,75.2,100,29.98,5.0,SW,3.5,-,N/A,Rain,Light Rain,220,2013-08-01 13:55:00
10:15 AM,75.2,75.2,100,29.98,4.0,Calm,Calm,-,N/A,Rain,Light Rain,0,2013-08-01 14:15:00
10:35 AM,75.2,75.2,100,29.98,7.0,SW,3.5,-,N/A,Rain,Light Rain,230,2013-08-01 14:35:00
10:55 AM,75.2,75.2,100,29.97,8.0,Calm,Calm,-,N/A,Rain,Light Rain,0,2013-08-01 14:55:00
11:15 AM,77.0,77.0,100,29.98,10.0,SW,3.5,-,N/A,Rain,Light Rain,230,2013-08-01 15:15:00
11:35 AM,80.6,77.0,89,29.98,10.0,West,3.5,-,N/A,Rain,Light Rain,280,2013-08-01 15:35:00
11:55 AM,84.2,77.0,79,29.97,10.0,West,5.8,-,N/A,,Mostly Cloudy,270,2013-08-01 15:55:00
12:15 PM,86.0,77.0,74,29.97,10.0,West,4.6,-,N/A,,Overcast,260,2013-08-01 16:15:00
12:35 PM,86.0,75.2,70,29.96,10.0,West,3.5,-,N/A,,Mostly Cloudy,280,2013-08-01 16:35:00
12:55 PM,86.0,73.4,66,29.96,10.0,West,5.8,-,N/A,,Mostly Cloudy,280,2013-08-01 16:55:00
1:15 PM,87.8,73.4,62,29.95,10.0,WSW,3.5,-,N/A,,Mostly Cloudy,250,2013-08-01 17:15:00
1:35 PM,89.6,73.4,59,29.94,10.0,SW,6.9,-,N/A,,Mostly Cloudy,230,2013-08-01 17:35:00
1:55 PM,91.4,73.4,55,29.93,10.0,Calm,Calm,-,N/A,,Partly Cloudy,0,2013-08-01 17:55:00
2:15 PM,91.4,71.6,52,29.94,10.0,Calm,Calm,-,N/A,,Partly Cloudy,0,2013-08-01 18:15:00
2:35 PM,91.4,73.4,55,29.94,10.0,Calm,Calm,-,N/A,,Mostly Cloudy,0,2013-08-01 18:35:00
2:55 PM,91.4,75.2,59,29.93,10.0,Calm,Calm,-,N/A,,Scattered Clouds,0,2013-08-01 18:55:00
3:15 PM,93.2,73.4,52,29.92,10.0,WSW,3.5,-,N/A,,Scattered Clouds,250,2013-08-01 19:15:00
3:35 PM,95.0,71.6,47,29.92,10.0,Calm,Calm,-,N/A,,Scattered Clouds,0,2013-08-01 19:35:00
3:55 PM,95.0,71.6,47,29.91,10.0,Calm,Calm,-,N/A,,Mostly Cloudy,0,2013-08-01 19:55:00
4:15 PM,91.4,75.2,59,29.91,10.0,Calm,Calm,-,N/A,,Scattered Clouds,0,2013-08-01 20:15:00
4:35 PM,89.6,77.0,66,29.91,10.0,Calm,Calm,-,N/A,,Clear,0,2013-08-01 20:35:00
4:55 PM,86.0,78.8,79,29.90,10.0,Calm,Calm,-,N/A,,Clear,0,2013-08-01 20:55:00
5:15 PM,84.2,80.6,89,29.92,10.0,Calm,Calm,-,N/A,Thunderstorm,Scattered Clouds,0,2013-08-01 21:15:00
5:35 PM,82.4,80.6,94,29.92,8.0,Calm,Calm,-,0.02,Rain-Thunderstorm,Light Thunderstorms and Rain,0,2013-08-01 21:35:00
5:55 PM,80.6,80.6,100,29.91,4.0,NNE,5.8,-,0.04,Rain,Light Rain,20,2013-08-01 21:55:00
6:15 PM,80.6,80.6,100,29.92,8.0,SW,5.8,-,N/A,Rain-Thunderstorm,Light Rain,230,2013-08-01 22:15:00
6:35 PM,77.0,77.0,100,29.92,5.0,Calm,Calm,-,0.08,Rain-Thunderstorm,Light Rain,0,2013-08-01 22:35:00
6:55 PM,75.2,75.2,100,29.93,9.0,Calm,Calm,-,0.08,,Partly Cloudy,0,2013-08-01 22:55:00
7:15 PM,77.0,77.0,100,29.94,9.0,Calm,Calm,-,N/A,,Clear,0,2013-08-01 23:15:00
7:35 PM,78.8,78.8,100,29.94,10.0,Calm,Calm,-,N/A,,Clear,0,2013-08-01 23:35:00
7:55 PM,77.0,77.0,100,29.95,10.0,South,3.5,-,N/A,,Clear,180,2013-08-01 23:55:00
8:15 PM,75.2,75.2,100,29.95,10.0,Calm,Calm,-,N/A,,Clear,0,2013-08-02 00:15:00
8:35 PM,73.4,73.4,100,29.95,10.0,Calm,Calm,-,N/A,,Clear,0,2013-08-02 00:35:00
8:55 PM,71.6,71.6,100,29.95,9.0,Calm,Calm,-,N/A,,Clear,0,2013-08-02 00:55:00
9:15 PM,71.6,71.6,100,29.96,4.0,Calm,Calm,-,N/A,,Clear,0,2013-08-02 01:15:00
9:35 PM,71.6,71.6,100,29.96,10.0,Calm,Calm,-,N/A,,Scattered Clouds,0,2013-08-02 01:35:00
9:55 PM,71.6,71.6,100,29.96,9.0,Calm,Calm,-,N/A,,Partly Cloudy,0,2013-08-02 01:55:00
10:15 PM,69.8,69.8,100,29.96,7.0,Calm,Calm,-,N/A,,Clear,0,2013-08-02 02:15:00
10:35 PM,69.8,69.8,100,29.96,3.0,North,-9999.0,-,N/A,,Clear,0,2013-08-02 02:35:00
10:55 PM,68.0,68.0,100,29.96,3.0,Calm,Calm,-,N/A,,Clear,0,2013-08-02 02:55:00
11:15 PM,68.0,68.0,100,29.96,3.0,Calm,Calm,-,N/A,,Clear,0,2013-08-02 03:15:00
11:35 PM,68.0,68.0,100,29.96,3.0,Calm,Calm,-,N/A,,Clear,0,2013-08-02 03:35:00
11:55 PM,68.0,68.0,100,29.97,2.0,Calm,Calm,-,N/A,,Clear,0,2013-08-02 03:55:00